TANUSHA-3 (43597 NORAD) Tracking and Keplerian Element Data

This shows tracking and keplerian element data for the satellite.

Feedback or suggestion? Click here.




ElementValue
Catalog43597
NameTANUSHA-3
Epoch Orbit5304
Epoch Day202.85978626
Epoch Year2019
RAAN175.2661
Inclination51.6349
Eccentricity0.0002416
Argument of Perigee257.9346
Mean Anonmoly102.1377
Mean Motion15.6314201
Decay Rate9.396E-05
L11 43597U 98067PJ 19202.85978626 .00009396 00000-0 10660-3 0 9996
L22 43597 51.6349 175.2661 0002416 257.9346 102.1377 15.63142010 53041

Live tracking and technical data element details for TANUSHA-3 (NORAD 43597). TANUSHA-3 can be tracked NOW for your location showing map with azimuth and elevation plus other details from your city location.

Track the satellite on the map from your city or location and see movement details for azimuth, elevation, latitude, longitude, range, height, and movement on the map or in text.







IsCatalogInMostPopularTable: catalog: 43597, numindb: 179
Update: records affected: 1



GetName: 43597 TANUSHA-3

Hit Count: updated at: Tue, 23 Jul 2019 03:52:26 GMT